• In India
  • List of Countries
  • For 7 days
  • Water Temperature
  • Satellite Maps
  • Weather Map
  • Weather Widgets
  • user-avatar
    Login

    Hourly Weather Choszczno

    Today, 18 January, Friday

    Time Temperature Precipitation Wind Pressure Humidity
    00:00 +1°C° 0.7 mm 5 mps 745 mmHg 86%
    01:00 0°C° 0.7 mm 5 mps 746 mmHg 85%
    02:00 0°C° 0.3 mm 5 mps 747 mmHg 85%
    03:00 -1°C° 0.3 mm 5 mps 747 mmHg 84%
    04:00 -2°C° 0.3 mm 5 mps 748 mmHg 84%
    05:00 -2°C° 0 mm 5 mps 749 mmHg 83%
    06:00 -2°C° 0 mm 5 mps 750 mmHg 83%
    07:00 -4°C° 0 mm 5 mps 751 mmHg 82%
    08:00 -4°C° 0 mm 5 mps 752 mmHg 80%
    09:00 -4°C° 0 mm 5 mps 753 mmHg 78%
    10:00 -2°C° 0 mm 5 mps 754 mmHg 76%
    11:00 -2°C° 0 mm 5 mps 755 mmHg 74%
    12:00 -1°C° 0 mm 5 mps 756 mmHg 72%
    13:00 -1°C° 0 mm 5 mps 756 mmHg 70%
    14:00 -1°C° 0 mm 4 mps 756 mmHg 73%
    15:00 -1°C° 0 mm 3 mps 757 mmHg 77%
    16:00 -1°C° 0 mm 3 mps 757 mmHg 80%
    17:00 -2°C° 0 mm 3 mps 757 mmHg 81%
    18:00 -2°C° 0 mm 3 mps 757 mmHg 82%
    19:00 -2°C° 0 mm 3 mps 758 mmHg 83%
    20:00 -2°C° 0 mm 3 mps 758 mmHg 86%
    21:00 -2°C° 0 mm 3 mps 758 mmHg 88%
    22:00 -2°C° 0 mm 3 mps 759 mmHg 90%
    23:00 -4°C° 0 mm 3 mps 759 mmHg 91%

    Tomorrow, 19 January, Saturday

    Time Temperature Precipitation Wind Pressure Humidity
    00:00 -4°C° 0 mm 3 mps 759 mmHg 92%
    01:00 -3°C° 0 mm 2 mps 759 mmHg 93%
    02:00 -3°C° 0 mm 2 mps 759 mmHg 92%
    03:00 -3°C° 0 mm 2 mps 759 mmHg 91%
    04:00 -3°C° 0 mm 2 mps 760 mmHg 90%
    05:00 -3°C° 0 mm 2 mps 760 mmHg 89%
    06:00 -3°C° 0 mm 2 mps 760 mmHg 88%
    07:00 -3°C° 0 mm 2 mps 760 mmHg 87%
    08:00 -3°C° 0 mm 2 mps 760 mmHg 86%
    09:00 -2°C° 0 mm 2 mps 760 mmHg 85%
    10:00 -2°C° 0 mm 2 mps 761 mmHg 83%
    11:00 -1°C° 0 mm 2 mps 760 mmHg 81%
    12:00 +1°C° 0 mm 2 mps 760 mmHg 78%
    13:00 +1°C° 0 mm 2 mps 760 mmHg 76%
    14:00 +1°C° 0 mm 2 mps 760 mmHg 79%
    15:00 +1°C° 0 mm 1 mps 760 mmHg 82%
    16:00 0°C° 0 mm 1 mps 759 mmHg 85%
    17:00 0°C° 0 mm 1 mps 759 mmHg 85%
    18:00 0°C° 0 mm 1 mps 759 mmHg 85%
    19:00 -1°C° 0 mm 1 mps 759 mmHg 86%
    20:00 -1°C° 0 mm 1 mps 759 mmHg 86%
    21:00 -1°C° 0 mm 1 mps 759 mmHg 85%
    22:00 -1°C° 0 mm 1 mps 759 mmHg 85%
    23:00 -1°C° 0 mm 1 mps 759 mmHg 85%

    Day after tomorrow, 20 January, Sunday

    Time Temperature Precipitation Wind Pressure Humidity
    00:00 -1°C° 0 mm 1 mps 759 mmHg 86%
    01:00 -1°C° 0 mm 1 mps 759 mmHg 86%
    02:00 -1°C° 0 mm 1 mps 759 mmHg 86%
    03:00 -2°C° 0 mm 1 mps 758 mmHg 85%
    04:00 -3°C° 0 mm 0 mps 758 mmHg 85%
    05:00 -3°C° 0 mm 0 mps 758 mmHg 85%
    06:00 -3°C° 0 mm 0 mps 758 mmHg 84%
    07:00 -3°C° 0 mm 0 mps 758 mmHg 84%
    08:00 -2°C° 0 mm 0 mps 758 mmHg 81%
    09:00 -2°C° 0 mm 0 mps 759 mmHg 79%
    10:00 -1°C° 0 mm 0 mps 759 mmHg 76%
    11:00 -1°C° 0 mm 0 mps 759 mmHg 74%
    12:00 +1°C° 0 mm 1 mps 759 mmHg 71%
    13:00 +2°C° 0 mm 1 mps 759 mmHg 69%
    14:00 +1°C° 0 mm 1 mps 759 mmHg 73%
    15:00 0°C° 0 mm 1 mps 759 mmHg 78%
    16:00 0°C° 0 mm 1 mps 759 mmHg 82%
    17:00 -3°C° 0 mm 2 mps 759 mmHg 84%
    18:00 -3°C° 0 mm 2 mps 760 mmHg 86%
    19:00 -3°C° 0 mm 2 mps 760 mmHg 88%
    20:00 -3°C° 0 mm 2 mps 760 mmHg 88%
    21:00 -3°C° 0 mm 2 mps 761 mmHg 88%
    22:00 -3°C° 0 mm 2 mps 761 mmHg 88%
    23:00 -3°C° 0 mm 2 mps 761 mmHg 88%

    21 January, Monday

    Time Temperature Precipitation Wind Pressure Humidity
    00:00 -4°C° 0 mm 2 mps 762 mmHg 87%
    01:00 -4°C° 0 mm 2 mps 762 mmHg 87%
    02:00 -4°C° 0 mm 2 mps 762 mmHg 87%
    03:00 -4°C° 0 mm 2 mps 762 mmHg 86%
    04:00 -4°C° 0 mm 2 mps 762 mmHg 86%
    05:00 -4°C° 0 mm 2 mps 762 mmHg 86%
    06:00 -4°C° 0 mm 2 mps 762 mmHg 86%
    07:00 -4°C° 0 mm 2 mps 763 mmHg 86%
    08:00 -4°C° 0 mm 2 mps 763 mmHg 83%
    09:00 -3°C° 0 mm 2 mps 763 mmHg 81%
    10:00 -3°C° 0 mm 2 mps 763 mmHg 78%
    11:00 -2°C° 0 mm 2 mps 763 mmHg 75%
    12:00 -2°C° 0 mm 2 mps 763 mmHg 73%
    13:00 -1°C° 0 mm 2 mps 763 mmHg 70%
    14:00 -1°C° 0 mm 2 mps 762 mmHg 74%
    15:00 -2°C° 0 mm 2 mps 762 mmHg 78%
    16:00 -2°C° 0 mm 2 mps 762 mmHg 82%
    17:00 -3°C° 0 mm 2 mps 762 mmHg 83%
    18:00 -3°C° 0 mm 2 mps 761 mmHg 84%
    19:00 -4°C° 0 mm 3 mps 761 mmHg 85%
    20:00 -4°C° 0 mm 3 mps 761 mmHg 84%
    21:00 -4°C° 0 mm 3 mps 761 mmHg 83%
    22:00 -5°C° 0 mm 3 mps 760 mmHg 82%
    23:00 -5°C° 0 mm 3 mps 760 mmHg 80%

    22 January, Tuesday

    Time Temperature Precipitation Wind Pressure Humidity
    00:00 -5°C° 0 mm 3 mps 759 mmHg 78%
    01:00 -5°C° 0 mm 3 mps 759 mmHg 77%
    02:00 -5°C° 0 mm 3 mps 758 mmHg 75%
    03:00 -5°C° 0 mm 3 mps 757 mmHg 74%
    04:00 -5°C° 0 mm 3 mps 757 mmHg 72%
    05:00 -6°C° 0 mm 3 mps 756 mmHg 72%
    06:00 -6°C° 0 mm 3 mps 755 mmHg 73%
    07:00 -6°C° 0 mm 3 mps 755 mmHg 73%
    08:00 -5°C° 0 mm 3 mps 754 mmHg 70%
    09:00 -5°C° 0 mm 4 mps 754 mmHg 67%
    10:00 -4°C° 0 mm 4 mps 753 mmHg 64%
    11:00 -3°C° 0 mm 4 mps 753 mmHg 62%
    12:00 -3°C° 0 mm 4 mps 752 mmHg 59%
    13:00 -2°C° 0 mm 4 mps 751 mmHg 57%
    14:00 -3°C° 0 mm 4 mps 751 mmHg 60%
    15:00 -3°C° 0 mm 4 mps 750 mmHg 63%
    16:00 -4°C° 0 mm 3 mps 750 mmHg 67%
    17:00 -4°C° 0 mm 3 mps 749 mmHg 70%
    18:00 -4°C° 0 mm 4 mps 749 mmHg 72%
    19:00 -4°C° 0 mm 4 mps 749 mmHg 75%
    20:00 -4°C° 0 mm 4 mps 748 mmHg 75%
    21:00 -5°C° 0 mm 4 mps 748 mmHg 75%
    22:00 -5°C° 0 mm 3 mps 748 mmHg 76%
    23:00 -5°C° 0 mm 3 mps 747 mmHg 75%

    23 January, Wednesday

    Time Temperature Precipitation Wind Pressure Humidity
    00:00 -5°C° 0 mm 3 mps 747 mmHg 74%
    01:00 -5°C° 0 mm 3 mps 747 mmHg 73%
    02:00 -5°C° 0 mm 4 mps 746 mmHg 74%
    03:00 -5°C° 0 mm 4 mps 746 mmHg 74%
    04:00 -5°C° 0 mm 4 mps 745 mmHg 75%
    05:00 -5°C° 0.1 mm 4 mps 745 mmHg 77%
    06:00 -5°C° 0.1 mm 4 mps 745 mmHg 79%
    07:00 -5°C° 0.1 mm 4 mps 745 mmHg 82%
    08:00 -4°C° 0.1 mm 4 mps 745 mmHg 81%
    09:00 -4°C° 0.1 mm 4 mps 745 mmHg 80%
    10:00 -4°C° 0.1 mm 4 mps 745 mmHg 80%
    11:00 -4°C° 0.1 mm 4 mps 745 mmHg 80%
    12:00 -4°C° 0.1 mm 4 mps 744 mmHg 81%
    13:00 -3°C° 0.1 mm 4 mps 744 mmHg 82%
    14:00 -3°C° 0.2 mm 4 mps 744 mmHg 84%
    15:00 -3°C° 0.2 mm 4 mps 744 mmHg 86%
    16:00 -4°C° 0.2 mm 4 mps 744 mmHg 87%
    17:00 -4°C° 0.2 mm 4 mps 744 mmHg 87%
    18:00 -4°C° 0.2 mm 4 mps 744 mmHg 87%
    19:00 -4°C° 0.2 mm 4 mps 744 mmHg 87%
    20:00 -4°C° 0 mm 4 mps 744 mmHg 87%
    21:00 -4°C° 0 mm 4 mps 745 mmHg 87%
    22:00 -4°C° 0 mm 4 mps 745 mmHg 86%
    23:00 -4°C° 0.1 mm 4 mps 745 mmHg 87%
    Show more